TimeCDT,TemperatureF,Dew PointF,Humidity,Sea Level PressureIn,VisibilityMPH,Wind Direction,Wind SpeedMPH,Gust SpeedMPH,PrecipitationIn,Events,Conditions,WindDirDegrees,DateUTC
12:12 AM,80.6,77.0,89,29.99,10.0,Calm,Calm,-,N/A,,Clear,0,2013-08-26 05:12:00
12:33 AM,80.6,75.2,84,29.98,10.0,Calm,Calm,-,N/A,,Clear,0,2013-08-26 05:33:00
12:52 AM,80.6,75.2,84,29.98,10.0,SSW,3.5,-,N/A,,Clear,200,2013-08-26 05:52:00
1:13 AM,80.6,75.2,84,29.98,10.0,Calm,Calm,-,N/A,,Scattered Clouds,0,2013-08-26 06:13:00
1:33 AM,78.8,75.2,89,29.98,10.0,Calm,Calm,-,N/A,,Scattered Clouds,0,2013-08-26 06:33:00
1:52 AM,78.8,75.2,89,29.97,10.0,SSW,4.6,-,N/A,,Scattered Clouds,210,2013-08-26 06:52:00
2:13 AM,78.8,75.2,89,29.97,10.0,SSW,4.6,-,N/A,,Clear,200,2013-08-26 07:13:00
2:33 AM,78.8,75.2,89,29.97,10.0,SSW,4.6,-,N/A,,Clear,210,2013-08-26 07:33:00
2:52 AM,78.8,75.2,89,29.97,10.0,SSW,4.6,-,N/A,,Clear,200,2013-08-26 07:52:00
3:13 AM,77.0,75.2,94,29.97,10.0,SSW,3.5,-,N/A,,Clear,200,2013-08-26 08:13:00
3:33 AM,78.8,75.2,89,29.97,10.0,SSW,3.5,-,N/A,,Clear,200,2013-08-26 08:33:00
3:52 AM,78.8,75.2,89,29.97,10.0,South,3.5,-,N/A,,Clear,190,2013-08-26 08:52:00
4:13 AM,77.0,75.2,94,29.97,10.0,SSW,3.5,-,N/A,,Clear,210,2013-08-26 09:13:00
4:33 AM,77.0,75.2,94,29.97,10.0,SSW,3.5,-,N/A,,Clear,210,2013-08-26 09:33:00
4:52 AM,77.0,75.2,94,29.97,10.0,Calm,Calm,-,N/A,,Clear,0,2013-08-26 09:52:00
5:13 AM,77.0,75.2,94,29.97,10.0,Calm,Calm,-,N/A,,Clear,0,2013-08-26 10:13:00
5:33 AM,77.0,75.2,94,29.97,10.0,Calm,Calm,-,N/A,,Clear,0,2013-08-26 10:33:00
5:52 AM,77.0,73.4,89,29.97,10.0,Calm,Calm,-,N/A,,Clear,0,2013-08-26 10:52:00
6:13 AM,75.2,73.4,94,29.97,10.0,Calm,Calm,-,N/A,,Clear,0,2013-08-26 11:13:00
6:32 AM,75.2,73.4,94,29.97,10.0,Calm,Calm,-,N/A,,Clear,0,2013-08-26 11:32:00
6:53 AM,75.2,73.4,94,29.98,7.0,Calm,Calm,-,N/A,,Clear,0,2013-08-26 11:53:00
7:13 AM,77.0,73.4,89,29.98,7.0,SSW,3.5,-,N/A,,Clear,200,2013-08-26 12:13:00
7:32 AM,77.0,73.4,89,29.98,10.0,SSW,3.5,-,N/A,,Clear,210,2013-08-26 12:32:00
7:53 AM,78.8,75.2,89,29.98,10.0,SSW,3.5,-,N/A,,Clear,210,2013-08-26 12:53:00
8:12 AM,78.8,75.2,89,29.98,10.0,Calm,Calm,-,N/A,,Clear,0,2013-08-26 13:12:00
8:33 AM,80.6,75.2,84,29.98,10.0,Calm,Calm,-,N/A,,Clear,0,2013-08-26 13:33:00
8:53 AM,82.4,75.2,79,29.98,10.0,South,3.5,-,N/A,,Clear,190,2013-08-26 13:53:00
9:12 AM,82.4,75.2,79,29.96,10.0,Calm,Calm,-,N/A,,Clear,0,2013-08-26 14:12:00
9:33 AM,84.2,75.2,74,29.96,10.0,SSW,3.5,-,N/A,,Clear,200,2013-08-26 14:33:00
9:53 AM,84.2,75.2,74,29.96,10.0,South,4.6,-,N/A,,Clear,180,2013-08-26 14:53:00
10:12 AM,84.2,75.2,74,29.96,10.0,Calm,Calm,-,N/A,,Clear,0,2013-08-26 15:12:00
10:33 AM,87.8,75.2,66,29.96,10.0,SSW,3.5,-,N/A,,Clear,200,2013-08-26 15:33:00
10:53 AM,87.8,75.2,66,29.96,10.0,South,4.6,-,N/A,,Clear,180,2013-08-26 15:53:00
11:12 AM,87.8,75.2,66,29.96,10.0,SSE,4.6,-,N/A,,Clear,150,2013-08-26 16:12:00
11:33 AM,87.8,75.2,66,29.96,10.0,SSE,5.8,-,N/A,,Clear,160,2013-08-26 16:33:00
11:53 AM,87.8,73.4,62,29.96,10.0,Calm,Calm,-,N/A,,Clear,0,2013-08-26 16:53:00
12:12 PM,89.6,73.4,59,29.96,10.0,South,4.6,-,N/A,,Clear,170,2013-08-26 17:12:00
12:33 PM,89.6,75.2,62,29.95,10.0,Calm,Calm,-,N/A,,Clear,0,2013-08-26 17:33:00
12:53 PM,89.6,73.4,59,29.94,10.0,SSE,5.8,-,N/A,,Clear,160,2013-08-26 17:53:00
1:12 PM,91.4,75.2,59,29.94,10.0,South,4.6,-,N/A,,Clear,170,2013-08-26 18:12:00
1:33 PM,89.6,73.4,59,29.92,10.0,SSE,6.9,-,N/A,,Clear,160,2013-08-26 18:33:00
1:53 PM,89.6,75.2,62,29.92,10.0,SSE,4.6,-,N/A,,Clear,160,2013-08-26 18:53:00
2:12 PM,91.4,75.2,59,29.92,7.0,SSE,8.1,-,N/A,,Clear,150,2013-08-26 19:12:00
2:33 PM,91.4,75.2,59,29.91,7.0,South,5.8,-,N/A,,Clear,170,2013-08-26 19:33:00
2:53 PM,91.4,75.2,59,29.90,10.0,SSE,8.1,-,N/A,,Clear,150,2013-08-26 19:53:00
3:13 PM,93.2,75.2,56,29.90,7.0,SSE,5.8,-,N/A,,Clear,150,2013-08-26 20:13:00
3:33 PM,93.2,75.2,56,29.89,10.0,SSE,4.6,-,N/A,,Clear,160,2013-08-26 20:33:00
3:52 PM,93.2,75.2,56,29.89,10.0,South,6.9,-,N/A,,Clear,170,2013-08-26 20:52:00
4:13 PM,93.2,75.2,56,29.88,10.0,South,4.6,-,N/A,,Clear,170,2013-08-26 21:13:00
4:33 PM,91.4,77.0,63,29.88,10.0,SSE,4.6,-,N/A,,Clear,160,2013-08-26 21:33:00
4:52 PM,93.2,75.2,56,29.88,10.0,South,6.9,-,N/A,,Clear,170,2013-08-26 21:52:00
5:13 PM,93.2,75.2,56,29.87,10.0,SSE,3.5,-,N/A,,Clear,160,2013-08-26 22:13:00
5:33 PM,91.4,77.0,63,29.86,10.0,SSE,4.6,-,N/A,,Clear,160,2013-08-26 22:33:00
5:52 PM,91.4,77.0,63,29.85,10.0,South,4.6,-,N/A,,Clear,180,2013-08-26 22:52:00
6:13 PM,89.6,77.0,66,29.84,10.0,South,6.9,-,N/A,,Clear,170,2013-08-26 23:13:00
6:33 PM,91.4,78.8,66,29.83,10.0,South,4.6,-,N/A,,Clear,180,2013-08-26 23:33:00
6:52 PM,89.6,78.8,70,29.83,10.0,South,4.6,-,N/A,,Clear,170,2013-08-26 23:52:00
7:13 PM,89.6,78.8,70,29.83,10.0,South,4.6,-,N/A,,Clear,180,2013-08-27 00:13:00
7:33 PM,87.8,78.8,75,29.83,10.0,SSE,3.5,-,N/A,,Clear,160,2013-08-27 00:33:00
7:52 PM,87.8,78.8,75,29.84,10.0,SSW,3.5,-,N/A,,Clear,200,2013-08-27 00:52:00
8:13 PM,87.8,78.8,75,29.84,10.0,SSE,3.5,-,N/A,,Clear,150,2013-08-27 01:13:00
8:33 PM,86.0,78.8,79,29.84,10.0,South,3.5,-,N/A,,Clear,180,2013-08-27 01:33:00
8:52 PM,84.2,78.8,84,29.85,10.0,South,3.5,-,N/A,,Clear,190,2013-08-27 01:52:00
9:13 PM,84.2,78.8,84,29.85,10.0,Calm,Calm,-,N/A,,Clear,0,2013-08-27 02:13:00
9:33 PM,84.2,78.8,84,29.87,10.0,WSW,3.5,-,N/A,,Clear,250,2013-08-27 02:33:00
9:52 PM,82.4,78.8,89,29.88,10.0,Calm,Calm,-,N/A,,Clear,0,2013-08-27 02:52:00
10:13 PM,82.4,78.8,89,29.88,10.0,Calm,Calm,-,N/A,,Clear,0,2013-08-27 03:13:00
10:32 PM,80.6,78.8,94,29.87,10.0,Calm,Calm,-,N/A,,Clear,0,2013-08-27 03:32:00
10:53 PM,80.6,78.8,94,29.86,10.0,Calm,Calm,-,N/A,,Clear,0,2013-08-27 03:53:00
11:13 PM,80.6,78.8,94,29.86,10.0,Calm,Calm,-,N/A,,Clear,0,2013-08-27 04:13:00
11:32 PM,78.8,78.8,100,29.86,10.0,Calm,Calm,-,N/A,,Clear,0,2013-08-27 04:32:00
11:53 PM,78.8,77.0,94,29.86,10.0,Calm,Calm,-,N/A,,Clear,0,2013-08-27 04:53:00